{"data":{"norad_id":45759,"epoch":"2026-09-20T04:51:50.556672Z","epoch_age_seconds":43998,"freshness":"FRESH","line1":"1 45759U 20038AF  26263.20266848  .00069360  00000+0  41719-3 0  9996","line2":"2 45759  53.0390 330.2743 0006569   6.7127 353.3979 15.77084051347093","mean_motion":15.77084051,"eccentricity":0.0006569,"inclination_deg":53.039,"raan_deg":330.2743,"arg_perigee_deg":6.7127,"mean_anomaly_deg":353.3979,"bstar":0.00041719,"rev_number":34709,"period_min":91.307752372927,"perigee_km":334.29500879633,"apogee_km":343.11959884268,"semimajor_km":6716.8443038195,"source":"CELESTRAK","updated_at":"2026-09-20T09:00:38.457629Z"}}